Location: Molveno
(46.1500°N, 10.9667°E)
Time: 08:12:08
(UTC+00:00)

Cosmos 2219 Rocket - Pass Details

Date: 05 July 2020
Orbit: 827 x 847 km, 71.0° (Epoch: 05 August)

Event Time Altitude Azimuth Distance (km) Brightness Sun altitude
Rises 22:14:10 0° 237° (WSW) 3,359 5.2 -19.5°
Reaches altitude 10° 22:16:53 10° 247° (WSW) 2,431 4.5 -19.7°
Maximum altitude 22:21:46 31° 309° (NW) 1,436 3.9 -19.9°
Drops below altitude 10° 22:26:42 10° 11° (N) 2,453 5.6 -20.1°
Sets 22:29:28 0° 21° (NNE) 3,394 6.3 -20.2°
